Regional Weather Roundup
Issued by NWS

Home | Current Version | Previous Version | Graphics & Text | Print | Product List | Glossary On
Versions: 1 2 3 4 5 6 7 8 9 10 11 12 13 14 15 16 17 18 19 20 21 22 23 24 25 26 27 28 29 30 31 32 33 34 35 36 37 38 39 40 41 42 43 44 45 46 47 48 49 50
000
ASUS43 KOAX 220410
RWRNE

WEATHER ROUNDUP FOR NEBRASKA
NATIONAL WEATHER SERVICE OMAHA NE
1000 PM CST TUE FEB 21 2017

NOTES: SATELLITE DATA IS BEING USED TO AUGMENT CLOUD COVER ABOVE
       12000 FEET.
       "FAIR" INDICATES FEW OR NO CLOUDS BELOW 12,000 FEET WITH NO
       SIGNIFICANT WEATHER AND/OR OBSTRUCTIONS TO VISIBILITY.

  * THESE STATIONS DO NOT REPORT WEATHER SUCH AS RAIN...SNOW OR FOG.

NEZ001>004-019>022-054>056-220500-
NEBRASKA PANHANDLE

CITY           SKY/WX    TMP DP  RH WIND       PRES   REMARKS
SCOTTSBLUFF    CLEAR     55  20  25 W10       29.79F
ALLIANCE       CLEAR     41  20  43 W10       29.78S
CHADRON        CLEAR     48  28  46 W7        29.75S
KIMBALL        CLEAR     51  22  32 W15       29.87S
SIDNEY         CLEAR     53  13  20 W20       29.83F
$$

NEZ057>060-069>072-079>082-220500-
SOUTHWEST NEBRASKA

CITY           SKY/WX    TMP DP  RH WIND       PRES   REMARKS
NORTH PLATTE   MOCLDY    42  28  57 CALM      29.79F
IMPERIAL       PTCLDY    50  22  33 SW8       29.83F
LEXINGTON      CLEAR     50  29  45 S3        29.79F
MCCOOK         PTCLDY    54  25  32 W7        29.81F
OGALLALA       CLOUDY    35  22  58 W5        29.80S WCI  31
$$

NEZ005>010-023>029-035>040-094-220500-
NORTH CENTRAL NEBRASKA

CITY           SKY/WX    TMP DP  RH WIND       PRES   REMARKS
VALENTINE      CLEAR     47  29  49 SW7       29.73S
AINSWORTH      CLEAR     49  32  52 SW10      29.75S
BROKEN BOW     PTCLDY    48  31  51 E5        29.78S
O`NEILL        CLEAR     53  34  47 SW8       29.73R
ORD            MOCLDY    55  31  39 VRB5      29.75S
THEDFORD       CLEAR     50  28  42 CALM      29.78S
$$

NEZ041-046>049-061>064-073>077-083>087-220500-
SOUTH CENTRAL NEBRASKA

CITY           SKY/WX    TMP DP  RH WIND       PRES   REMARKS
GRAND ISLAND   CLEAR     57  32  38 SW13      29.77F
AURORA         CLEAR     55  29  36 SW13      29.77F
HASTINGS       CLEAR     57  28  33 S9        29.80S
HEBRON         CLEAR     52  30  43 S9        29.81S
HOLDREGE       CLEAR     55  25  31 SW7       29.81R
KEARNEY *      CLEAR     57  27  30 SW10      29.80S
YORK           CLEAR     50  32  50 S12       29.78S
$$

NEZ011>018-030>034-042>045-220500-
NORTHEAST NEBRASKA

CITY           SKY/WX    TMP DP  RH WIND       PRES   REMARKS
NORFOLK        CLOUDY    54  34  46 S16       29.70F
ALBION         MOCLDY    53  33  46 CALM      29.74S
BLAIR          CLEAR     55  38  52 S13       29.77F
FREMONT        CLEAR     58  32  36 S12       29.76S
TEKAMAH        CLEAR     49  38  65 S13       29.74F
WAYNE          PTCLDY    53  35  49 SW6       29.71S
$$

NEZ050>053-065>068-078-088>093-220500-
SOUTHEAST NEBRASKA

CITY           SKY/WX    TMP DP  RH WIND       PRES   REMARKS
LINCOLN        CLEAR     56  33  42 S13       29.80S
OMAHA EPPLEY   CLEAR     51  37  58 S12       29.78S
BEATRICE       CLEAR     56  35  43 S10G16    29.82S
FALLS CITY     CLEAR     55  34  45 S9        29.84F
NEBRASKA CITY  CLEAR     53  31  42 S14       29.81F
PLATTSMOUTH    CLEAR     55  32  41 S15       29.79F
$$

NEZ044-045-051>053-067-220500-
OMAHA AREA

CITY           SKY/WX    TMP DP  RH WIND       PRES   REMARKS
OMAHA EPPLEY   CLEAR     51  37  58 S12       29.78S
BLAIR          CLEAR     55  38  52 S13       29.77F
FREMONT        CLEAR     58  32  36 S12       29.76S
MILLARD        CLEAR     56  39  51 SE6       29.78F
OFFUTT AFB     CLEAR     44  38  78 SE7       29.79S
PLATTSMOUTH    CLEAR     55  32  41 S15       29.79F
WAHOO          FAIR      56  32  40 S13       29.77S
$$



USA.gov is the U.S. government's official web portal to all federal, state and local government web resources and services.